This is the latest recevied weather packets stored in our database for station/object AJ5AG. If no packets are shown the sender has not sent any weather packets the latest 10 day(s).
| Time | Temp. | Humidity | Pressure | Rain* | Wind** | Luminosity | Snow |
|---|---|---|---|---|---|---|---|
| 1778022193 | 28.33° C | 73% | 1009.1 hPa | 0 mm | - | 88 W/m² | - |
| 1778021889 | 28.33° C | 73% | 1009.2 hPa | 0 mm | - | 102 W/m² | - |
| 1778021586 | 28.33° C | 74% | 1009.3 hPa | 0 mm | - | 82 W/m² | - |
| 1778021281 | 28.33° C | 73% | 1009.2 hPa | 0 mm | - | 95 W/m² | - |
| 1778020979 | 28.33° C | 73% | 1009.1 hPa | 0 mm | - | 93 W/m² | - |
| 1778020677 | 28.33° C | 73% | 1009 hPa | 0 mm | - | 93 W/m² | - |
| 1778020373 | 28.33° C | 73% | 1009.1 hPa | 0 mm | - | 101 W/m² | - |
| 1778020069 | 28.33° C | 74% | 1009 hPa | 0 mm | - | 122 W/m² | - |
| 1778019766 | 28.89° C | 74% | 1009.2 hPa | 0 mm | - | 102 W/m² | - |
| 1778019463 | 28.33° C | 73% | 1009 hPa | 0 mm | - | 96 W/m² | - |
| 1778019159 | 28.33° C | 73% | 1009.2 hPa | 0 mm | - | 117 W/m² | - |
| 1778018856 | 28.33° C | 72% | 1009 hPa | 0 mm | - | 105 W/m² | - |
| 1778018553 | 28.89° C | 71% | 1009 hPa | 0 mm | - | 101 W/m² | - |
| 1778018251 | 28.33° C | 72% | 1009.3 hPa | 0 mm | - | 135 W/m² | - |
| 1778017949 | 28.33° C | 72% | 1009.3 hPa | 0 mm | - | 137 W/m² | - |
| 1778017647 | 28.89° C | 72% | 1009.2 hPa | 0 mm | - | 110 W/m² | - |
| 1778017344 | 28.89° C | 73% | 1009.2 hPa | 0 mm | - | 178 W/m² | - |
| 1778017041 | 28.89° C | 72% | 1009.4 hPa | 0 mm | - | 109 W/m² | - |
| 1778016738 | 28.89° C | 71% | 1009.5 hPa | 0 mm | - | 145 W/m² | - |
| 1778016434 | 28.89° C | 70% | 1009.4 hPa | 0 mm | - | 132 W/m² | - |
| 1778016132 | 29.44° C | 69% | 1009.4 hPa | 0 mm | - | 133 W/m² | - |
| 1778015828 | 29.44° C | 70% | 1009.5 hPa | 0 mm | - | 198 W/m² | - |
| 1778015526 | 29.44° C | 70% | 1009.4 hPa | 0 mm | - | 151 W/m² | - |
| 1778015222 | 29.44° C | 70% | 1009.5 hPa | 0 mm | - | 167 W/m² | - |
| 1778014919 | 29.44° C | 70% | 1009.6 hPa | 0 mm | - | 94 W/m² | - |
* Rain latest hour (hover to see other rain measurements)
** Current wind speed in m/s (hover to see current wind gust speed)